Regional Weather Roundup
Issued by NWS

Home | Current Version | Previous Version | Graphics & Text | Print | Product List | Glossary On
Versions: 1 2 3 4 5 6 7 8 9 10 11 12 13 14 15 16 17 18 19 20 21 22 23 24 25 26 27 28 29 30 31 32 33 34 35 36 37 38 39 40 41 42 43 44 45 46 47 48 49 50
000
ASUS43 KDTX 011201
RWRMI
MICHIGAN HOURLY REGIONAL WEATHER ROUNDUP
NATIONAL WEATHER SERVICE DETROIT/PONTIAC MI
800 AM EDT MON SEP 01 2014

NOTE: "FAIR" INDICATES FEW OR NO CLOUDS BELOW 12,000 FEET WITH NO
SIGNIFICANT WEATHER AND/OR OBSTRUCTION TO VISIBILITY.

MIZ047>049-052>055-059>063-066>070-074>076-081>083-011300-
SOUTHEAST LOWER MICHIGAN

CITY           SKY/WX    TMP DP  RH WIND       PRES   REMARKS
ADRIAN         CLOUDY    70  69  97 SW7       29.93F FOG
6HR MIN TEMP:  68; 6HR MAX TEMP:  70;

ALMA           CLOUDY    67  66  97 S5        29.86F FOG
ANN ARBOR      FOG       70  66  88 S6        29.92  VSB 1/4
BAD AXE        SUNNY     62  62 100 CALM      29.90S FOG
6HR MIN TEMP:  58; 6HR MAX TEMP:  67;

CARO           SUNNY     65  64  99 CALM      29.89S FOG
DETROIT CITY   MOSUNNY   74  69  85 SW6       29.92S
6HR MIN TEMP:  73; 6HR MAX TEMP:  77;

DETROIT        MOSUNNY   70  69  97 S6        29.93R FOG
6HR MIN TEMP:  69; 6HR MAX TEMP:  72;

FLINT          SUNNY     71  67  87 S6        29.90F FOG
6HR MIN TEMP:  68; 6HR MAX TEMP:  72;

GROSSE ILE     MOSUNNY   72  70  94 SW7       29.92R
HILLSDALE      CLOUDY    71  71 100 S6        29.92F FOG
6HR MIN TEMP:  70; 6HR MAX TEMP:  71;

HOWELL         FOG       67  67  99 SE5       29.91S VSB<1/4
6HR MIN TEMP:  65; 6HR MAX TEMP:  68;


CITY           SKY/WX    TMP DP  RH WIND       PRES   REMARKS
JACKSON        CLEAR     70  68  93 S6        29.90F
6HR MIN TEMP:  68; 6HR MAX TEMP:  70;

LAMBERTVILLE   CLOUDY    72  68  88 S7        29.93F FOG
LANSING        CLOUDY    70  68  93 S9        29.88F FOG
6HR MIN TEMP:  67; 6HR MAX TEMP:  70;

LAPEER         FAIR      64  62  96 CALM      29.91F FOG
MASON          FOG       67  66  97 S5        29.90S VSB 1/4
MONROE         MOSUNNY   72  70  94 S5        29.91F FOG
MT. CLEMENS    SUNNY     72  69  90 SW5       29.91S
6HR MIN TEMP:  69; 6HR MAX TEMP:  73;

PONTIAC        FOG       69  68  96 S6        29.92S VSB 1
6HR MIN TEMP:  66; 6HR MAX TEMP:  71;

PORT HOPE        N/A     68  64  87 VRB6      29.87S
6HR MIN TEMP:  66; 6HR MAX TEMP:  69;

PORT HURON     FOG       70  70 100 S5        29.92S VSB 1/4
TRI CITIES     PTCLDY    69  66  90 S8        29.88F
6HR MIN TEMP:  64; 6HR MAX TEMP:  69;

TROY           CLOUDY    71  68  90 SW7       29.94S FOG
SAGINAW HB     MOSUNNY   68  68 100 S6        29.87F FOG
$$
MIZ043>046-050>051-056>058-064>065-071>073-077>080-011300-
SOUTHWEST LOWER MICHIGAN

CITY           SKY/WX    TMP DP  RH WIND       PRES   REMARKS
BATTLE CREEK   CLOUDY    71  69  93 S10       29.88F FOG
6HR MIN TEMP:  69; 6HR MAX TEMP:  71;

BENTON HARBOR  CLOUDY    71  70  96 S10       29.82F
6HR MIN TEMP:  70; 6HR MAX TEMP:  72;

BIG RAPIDS     CLOUDY    66  66 100 CALM      29.82F FOG
6HR MIN TEMP:  60; 6HR MAX TEMP:  66;

COLDWATER      CLOUDY    72  70  95 S5        29.89F FOG
6HR MIN TEMP:  71; 6HR MAX TEMP:  73;

FREMONT        CLOUDY    69  68  98 S5        29.81F FOG
HOLLAND        CLEAR     72  69  90 SE9       29.82F
6HR MIN TEMP:  69; 6HR MAX TEMP:  72;

GRAND RAPIDS   MOCLDY    71  71 100 S8        29.84F FOG
6HR MIN TEMP:  67; 6HR MAX TEMP:  71;

IONIA          CLOUDY    69  69  98 S8        29.85F FOG
KALAMAZOO      CLOUDY    72  69  90 S12       29.86F FOG
6HR MIN TEMP:  70; 6HR MAX TEMP:  72;

LUDINGTON      PTCLDY    69  68  96 N3        29.78F FOG
6HR MIN TEMP:  69; 6HR MAX TEMP:  69;

MARSHALL       MOCLDY    69  69  98 S6        29.88F FOG
MOUNT PLEASANT CLOUDY    65  65  97 SE5       29.84F FOG
6HR MIN TEMP:  58; 6HR MAX TEMP:  65;

MUSKEGON       MOCLDY    74  69  85 S10       29.79F
6HR MIN TEMP:  70; 6HR MAX TEMP:  74;

SOUTH HAVEN    PTCLDY    72  70  95 S6        29.82S FOG
$$
MIZ016>042-011300-
NORTHERN LOWER MICHIGAN

CITY           SKY/WX    TMP DP  RH WIND       PRES   REMARKS
ALPENA         FOG       63  63 100 SE6       29.85F VSB 1/4
6HR MIN TEMP:  59; 6HR MAX TEMP:  63;

BEAVER ISLAND  PTCLDY    68  65  89 S8        29.75F
6HR MIN TEMP:  64; 6HR MAX TEMP:  68;

BELLAIRE       MOCLDY    69  65  86 S5        29.78S
6HR MIN TEMP:  58; 6HR MAX TEMP:  69;

CADILLAC       CLOUDY    67  67  99 S10       29.82F FOG
CHARLEVOIX     PTCLDY    67  66  96 SE7       29.79F
6HR MIN TEMP:  64; 6HR MAX TEMP:  67;

FRANKFORT      PTCLDY    72  67  84 S9        29.75F
GAYLORD        MOCLDY    64  62  93 S10       29.84S
6HR MIN TEMP:  60; 6HR MAX TEMP:  64;

GRAYLING       PTCLDY    59  59 100 CALM      29.84F FOG
6HR MIN TEMP:  56; 6HR MAX TEMP:  62;

HARBOR SPRINGS CLOUDY    65  63  91 N3        29.79S
HOUGHTON LAKE  MOCLDY    67  65  93 S8        29.85F
6HR MIN TEMP:  58; 6HR MAX TEMP:  67;

MANISTEE       CLEAR     68  64  88 SE5       29.78F
OSCODA         FOG       64  64 100 S5        29.85F VSB<1/4
PELLSTON       MOCLDY    64  63  96 SE9       29.79F
6HR MIN TEMP:  56; 6HR MAX TEMP:  64;

ROGERS CITY    PTSUNNY   63  63 100 S7        29.83F FOG
TRAVERSE CITY  MOCLDY    69  65  86 SE5       29.76F
6HR MIN TEMP:  65; 6HR MAX TEMP:  69;

$$
MIZ007>008-015-011300-
EASTERN UPPER MICHIGAN

CITY           SKY/WX    TMP DP  RH WIND       PRES   REMARKS
KINROSS        CLOUDY    63  61  94 SE14      29.79F
6HR MIN TEMP:  59; 6HR MAX TEMP:  63;

MACKINAC ISLAN MOCLDY    64  63  96 SE13G20   29.79F
6HR MIN TEMP:  61; 6HR MAX TEMP:  64;

NEWBERRY       PTCLDY    64  62  94 S10       29.74F
6HR MIN TEMP:  60; 6HR MAX TEMP:  64;

S. S. MARIE    CLOUDY    62  60  93 SE9       29.79F
6HR MIN TEMP:  60; 6HR MAX TEMP:  62;

$$
MIZ004>006-011>014-085-011300-
CENTRAL UPPER MICHIGAN

CITY           SKY/WX    TMP DP  RH WIND       PRES   REMARKS
MANISTIQUE     CLOUDY    66  65  97 SE5       29.71F
ESCANABA       MOCLDY    68  64  88 S14G22    29.67F
6HR MIN TEMP:  64; 6HR MAX TEMP:  68;

MENOMINEE      MOCLDY    68  64  88 S9        29.66F
6HR MIN TEMP:  66; 6HR MAX TEMP:  72;

SAWYER-GWINN   CLOUDY    66  66 100 S13G18    29.67S FOG
$$
MIZ001>003-009>011-084-011300-
WESTERN UPPER MICHIGAN

CITY           SKY/WX    TMP DP  RH WIND       PRES   REMARKS
IRON MOUNTAIN  MOCLDY    67  65  93 SE7       29.65F FOG
6HR MIN TEMP:  64; 6HR MAX TEMP:  68;

HOUGHTON       CLOUDY    67  64  90 S8        29.57S
6HR MIN TEMP:  65; 6HR MAX TEMP:  68; 6HR PCP:  0.02;

COPPER HARBOR    N/A     66  62  87 SW8       29.54F
6HR MIN TEMP:  64; 6HR MAX TEMP:  66;

$$

ABBREVIATIONS USED IN REMARKS
   TC - TEMPERATURE IN CELSIUS
  WCI - WIND CHILL INDEX
   HX - HEAT INDEX
  VSB - VISIBILITY



USA.gov is the U.S. government's official web portal to all federal, state and local government web resources and services.